When you browse on this site, cookies collect data to enhance your experience and personalize the content and advertising you see.
Visit our Privacy Policy to learn more. By continuing to use the site, you agree to this use of cookies and data.
  • In Netherlands
  • List of Countries
  • For 7 days
  • Water Temperature
  • Weather Map
  • Weather Widgets
  • user-avatar
    Login

    Hourly Weather Neuquén

    Today, 20 February, Thursday

    Time Temperature Precipitation Wind Pressure Humidity
    00:00 +16°C° 0 mm 3 mps 737 mmHg 16%
    01:00 +15°C° 0 mm 2 mps 737 mmHg 19%
    02:00 +15°C° 0 mm 2 mps 738 mmHg 21%
    03:00 +14°C° 0 mm 2 mps 738 mmHg 23%
    04:00 +13°C° 0 mm 2 mps 738 mmHg 25%
    05:00 +15°C° 0 mm 2 mps 739 mmHg 23%
    06:00 +17°C° 0 mm 2 mps 740 mmHg 22%
    07:00 +18°C° 0 mm 4 mps 740 mmHg 22%
    08:00 +20°C° 0 mm 4 mps 741 mmHg 20%
    09:00 +21°C° 0 mm 3 mps 741 mmHg 17%
    10:00 +24°C° 0 mm 3 mps 741 mmHg 15%
    11:00 +25°C° 0 mm 3 mps 741 mmHg 13%
    12:00 +26°C° 0 mm 3 mps 740 mmHg 12%
    13:00 +27°C° 0 mm 3 mps 740 mmHg 11%
    14:00 +27°C° 0 mm 4 mps 739 mmHg 10%
    15:00 +28°C° 0 mm 5 mps 739 mmHg 10%
    16:00 +28°C° 0 mm 6 mps 739 mmHg 9%
    17:00 +26°C° 0 mm 5 mps 739 mmHg 10%
    18:00 +23°C° 0 mm 5 mps 739 mmHg 11%
    19:00 +22°C° 0 mm 5 mps 740 mmHg 12%
    20:00 +21°C° 0 mm 6 mps 740 mmHg 14%
    21:00 +20°C° 0 mm 6 mps 741 mmHg 15%
    22:00 +18°C° 0 mm 7 mps 742 mmHg 17%
    23:00 +17°C° 0 mm 7 mps 742 mmHg 24%

    Tomorrow, 21 February, Friday

    Time Temperature Precipitation Wind Pressure Humidity
    00:00 +15°C° 0 mm 7 mps 742 mmHg 32%
    01:00 +14°C° 0 mm 7 mps 743 mmHg 39%
    08:00 +16°C° 0 mm 5 mps 744 mmHg 43%
    09:00 +19°C° 0 mm 5 mps 744 mmHg 35%
    10:00 +21°C° 0 mm 6 mps 744 mmHg 26%
    11:00 +22°C° 0 mm 6 mps 743 mmHg 24%
    12:00 +23°C° 0 mm 6 mps 742 mmHg 21%
    13:00 +26°C° 0 mm 6 mps 742 mmHg 18%
    14:00 +26°C° 0 mm 6 mps 741 mmHg 17%
    15:00 +26°C° 0 mm 6 mps 741 mmHg 16%
    16:00 +27°C° 0 mm 6 mps 740 mmHg 15%
    17:00 +24°C° 0 mm 6 mps 740 mmHg 16%
    18:00 +23°C° 0 mm 5 mps 740 mmHg 18%
    19:00 +21°C° 0 mm 5 mps 740 mmHg 19%
    20:00 +20°C° 0 mm 5 mps 740 mmHg 22%
    21:00 +20°C° 0 mm 5 mps 740 mmHg 26%
    22:00 +19°C° 0 mm 5 mps 741 mmHg 29%
    23:00 +17°C° 0 mm 5 mps 740 mmHg 30%

    Day after tomorrow, 22 February, Saturday

    Time Temperature Precipitation Wind Pressure Humidity
    00:00 +18°C° 0 mm 4 mps 740 mmHg 31%
    01:00 +17°C° 0 mm 4 mps 740 mmHg 32%
    02:00 +17°C° 0 mm 4 mps 739 mmHg 33%
    03:00 +15°C° 0 mm 4 mps 739 mmHg 34%
    04:00 +15°C° 0 mm 4 mps 739 mmHg 35%
    05:00 +16°C° 0 mm 5 mps 739 mmHg 33%
    06:00 +17°C° 0 mm 5 mps 739 mmHg 31%
    07:00 +19°C° 0 mm 6 mps 739 mmHg 29%
    08:00 +22°C° 0 mm 7 mps 738 mmHg 24%
    09:00 +24°C° 0 mm 8 mps 738 mmHg 20%
    10:00 +28°C° 0 mm 8 mps 738 mmHg 15%
    11:00 +29°C° 0 mm 9 mps 737 mmHg 15%
    12:00 +31°C° 0 mm 9 mps 736 mmHg 15%
    13:00 +33°C° 0 mm 9 mps 735 mmHg 14%
    14:00 +33°C° 0 mm 9 mps 735 mmHg 15%
    15:00 +33°C° 0 mm 9 mps 734 mmHg 16%
    16:00 +33°C° 0 mm 9 mps 733 mmHg 17%
    17:00 +30°C° 0 mm 7 mps 732 mmHg 19%
    18:00 +29°C° 0 mm 6 mps 732 mmHg 22%
    19:00 +27°C° 0 mm 5 mps 732 mmHg 24%
    20:00 +26°C° 0 mm 5 mps 732 mmHg 26%
    21:00 +26°C° 0 mm 5 mps 732 mmHg 28%
    22:00 +25°C° 0 mm 5 mps 732 mmHg 29%
    23:00 +23°C° 0 mm 5 mps 731 mmHg 32%

    23 February, Sunday

    Time Temperature Precipitation Wind Pressure Humidity
    00:00 +23°C° 0 mm 5 mps 731 mmHg 34%
    01:00 +22°C° 0 mm 5 mps 730 mmHg 36%
    02:00 +21°C° 0 mm 4 mps 730 mmHg 39%
    03:00 +20°C° 0 mm 3 mps 730 mmHg 42%
    04:00 +19°C° 0 mm 2 mps 729 mmHg 45%
    05:00 +21°C° 0 mm 2 mps 729 mmHg 41%
    06:00 +24°C° 0 mm 2 mps 729 mmHg 37%
    07:00 +25°C° 0 mm 1 mps 729 mmHg 33%
    08:00 +28°C° 0 mm 2 mps 729 mmHg 28%
    09:00 +31°C° 0 mm 3 mps 729 mmHg 22%
    10:00 +34°C° 0 mm 4 mps 729 mmHg 16%
    11:00 +36°C° 0 mm 5 mps 728 mmHg 13%
    12:00 +38°C° 0 mm 6 mps 728 mmHg 11%
    13:00 +39°C° 0 mm 7 mps 727 mmHg 9%
    14:00 +39°C° 0 mm 8 mps 727 mmHg 9%
    15:00 +39°C° 0 mm 10 mps 726 mmHg 9%
    16:00 +39°C° 0 mm 11 mps 726 mmHg 9%
    17:00 +36°C° 0 mm 12 mps 726 mmHg 11%
    18:00 +33°C° 0 mm 12 mps 726 mmHg 13%
    19:00 +29°C° 0 mm 13 mps 726 mmHg 15%
    20:00 +28°C° 0 mm 12 mps 727 mmHg 18%
    21:00 +26°C° 0 mm 12 mps 727 mmHg 20%
    22:00 +23°C° 0 mm 11 mps 727 mmHg 23%
    23:00 +22°C° 0 mm 10 mps 727 mmHg 28%

    24 February, Monday

    Time Temperature Precipitation Wind Pressure Humidity
    00:00 +21°C° 0 mm 10 mps 727 mmHg 34%
    01:00 +18°C° 0 mm 9 mps 727 mmHg 39%
    02:00 +18°C° 0 mm 9 mps 728 mmHg 40%
    03:00 +17°C° 0 mm 9 mps 728 mmHg 41%
    04:00 +17°C° 0 mm 8 mps 728 mmHg 42%
    05:00 +17°C° 0 mm 9 mps 729 mmHg 38%
    06:00 +18°C° 0 mm 10 mps 729 mmHg 34%
    07:00 +18°C° 0 mm 11 mps 730 mmHg 30%
    08:00 +19°C° 0 mm 10 mps 730 mmHg 29%
    09:00 +21°C° 0 mm 9 mps 730 mmHg 27%
    10:00 +23°C° 0 mm 9 mps 730 mmHg 26%
    11:00 +24°C° 0 mm 9 mps 730 mmHg 24%
    12:00 +26°C° 0 mm 9 mps 730 mmHg 22%
    13:00 +28°C° 0 mm 9 mps 729 mmHg 20%
    14:00 +28°C° 0 mm 9 mps 729 mmHg 20%
    15:00 +28°C° 0 mm 10 mps 728 mmHg 19%
    16:00 +28°C° 0 mm 10 mps 728 mmHg 19%
    17:00 +27°C° 0 mm 10 mps 728 mmHg 22%
    18:00 +24°C° 0 mm 11 mps 729 mmHg 25%
    19:00 +22°C° 0 mm 11 mps 729 mmHg 28%
    20:00 +21°C° 0 mm 11 mps 730 mmHg 32%
    21:00 +18°C° 0 mm 10 mps 730 mmHg 36%
    22:00 +17°C° 0 mm 9 mps 731 mmHg 40%
    23:00 +17°C° 0 mm 9 mps 731 mmHg 42%

    25 February, Tuesday

    Time Temperature Precipitation Wind Pressure Humidity
    00:00 +16°C° 0 mm 8 mps 731 mmHg 44%
    01:00 +15°C° 0 mm 8 mps 731 mmHg 47%
    02:00 +15°C° 0 mm 7 mps 731 mmHg 48%
    03:00 +14°C° 0 mm 7 mps 731 mmHg 50%
    04:00 +14°C° 0 mm 6 mps 732 mmHg 52%
    05:00 +15°C° 0 mm 6 mps 732 mmHg 48%
    06:00 +16°C° 0 mm 6 mps 732 mmHg 44%
    07:00 +17°C° 0 mm 5 mps 733 mmHg 39%
    08:00 +20°C° 0 mm 5 mps 733 mmHg 34%
    09:00 +22°C° 0 mm 5 mps 732 mmHg 28%
    10:00 +23°C° 0 mm 4 mps 732 mmHg 23%
    11:00 +26°C° 0 mm 4 mps 732 mmHg 20%
    12:00 +27°C° 0 mm 5 mps 732 mmHg 17%
    13:00 +29°C° 0 mm 5 mps 731 mmHg 14%
    14:00 +29°C° 0 mm 5 mps 731 mmHg 13%
    15:00 +30°C° 0 mm 5 mps 730 mmHg 12%
    16:00 +30°C° 0 mm 5 mps 730 mmHg 11%
    17:00 +28°C° 0 mm 4 mps 730 mmHg 12%
    18:00 +26°C° 0 mm 3 mps 730 mmHg 14%
    19:00 +24°C° 0 mm 2 mps 730 mmHg 15%
    20:00 +23°C° 0 mm 2 mps 731 mmHg 17%
    21:00 +21°C° 0 mm 2 mps 731 mmHg 18%
    22:00 +21°C° 0 mm 3 mps 732 mmHg 19%
    23:00 +20°C° 0 mm 3 mps 732 mmHg 21%
    Show more